CW4113 Weather Reports


time (UTC)temp
F
wind
direction
speed
knots
gust
knots
rain 1hr
in
rain 24hr
in
rain mn
in
humidity
%
barometer
mb
20260831222805 75 139 2.6 5.2 0.00 0.00 0.00 82 1018.9
20260831222306 75 115 0.0 2.6 0.00 0.00 0.00 82 1018.9
20260831221806 75 115 0.9 2.6 0.00 0.00 0.00 82 1018.9
20260831221305 75 69 0.9 2.6 0.00 0.00 0.00 82 1019.0
20260831220306 75 82 1.7 2.6 0.00 0.00 0.00 82 1019.0
20260831215805 74 122 0.9 1.7 0.00 0.00 0.00 81 1019.1
20260831215306 74 122 0.9 2.6 0.00 0.00 0.00 82 1019.1
20260831214805 74 122 2.6 2.6 0.00 0.00 0.00 80 1019.2
20260831214306 74 132 1.7 2.6 0.00 0.00 0.00 81 1019.3
20260831213806 74 132 1.7 4.3 0.00 0.00 0.00 81 1019.3
20260831213306 74 133 1.7 4.3 0.00 0.00 0.00 81 1019.3
20260831212806 75 100 1.7 4.3 0.00 0.00 0.00 80 1019.2
20260831212306 75 120 1.7 4.3 0.00 0.00 0.00 82 1019.2
20260831211805 75 127 3.5 6.1 0.00 0.00 0.00 82 1019.2
20260831211306 75 134 1.7 4.3 0.00 0.00 0.00 83 1019.3
20260831210805 75 90 0.9 2.6 0.00 0.00 0.00 82 1019.5
20260831210305 75 90 1.7 5.2 0.00 0.00 0.00 83 1019.5
20260831205806 74 70 1.7 2.6 0.00 0.00 0.00 82 1019.5
20260831205306 75 59 0.9 2.6 0.00 0.00 0.00 83 1019.6
20260831204306 75 25 0.9 2.6 0.00 0.00 0.00 82 1019.7
20260831203805 74 54 1.7 2.6 0.00 0.00 0.00 81 1019.8
20260831202805 74 100 1.7 2.6 0.00 0.00 0.00 81 1019.8
20260831202306 74 355 1.7 2.6 0.00 0.00 0.00 82 1019.8
20260831201805 74 355 0.0 2.6 0.00 0.00 0.00 82 1019.9
20260831201305 74 355 1.7 2.6 0.00 0.00 0.00 82 1019.8
20260831200805 74 355 0.0 1.7 0.00 0.00 0.00 83 1019.8
20260831200305 74 355 0.9 2.6 0.00 0.00 0.00 82 1019.8
20260831195805 74 355 0.9 2.6 0.00 0.00 0.00 83 1020.0
20260831194805 74 355 0.0 1.7 0.00 0.00 0.00 84 1019.9
20260831194306 73 355 1.7 2.6 0.00 0.00 0.00 84 1019.9
20260831193805 73 355 0.0 0.9 0.00 0.00 0.00 83 1019.9
20260831193306 73 355 0.0 0.0 0.00 0.00 0.00 81 1020.1
20260831192805 73 355 0.9 1.7 0.00 0.00 0.00 80 1020.3
20260831192306 74 355 0.0 1.7 0.00 0.00 0.00 80 1020.4
20260831191805 74 355 0.9 2.6 0.00 0.00 0.00 80 1020.6
20260831191305 74 355 1.7 2.6 0.00 0.00 0.00 79 1020.5
20260831190805 74 355 0.9 1.7 0.00 0.00 0.00 79 1020.4
20260831190305 74 355 1.7 2.6 0.00 0.00 0.00 79 1020.4
20260831185806 74 355 1.7 2.6 0.00 0.00 0.00 79 1020.4
20260831185306 74 328 1.7 2.6 0.00 0.00 0.00 80 1020.5
20260831184805 74 20 1.7 4.3 0.00 0.00 0.00 79 1020.5
20260831183305 76 344 1.7 4.3 0.00 0.00 0.00 73 1020.5
20260831182805 76 0 0.0 1.7 0.00 0.00 0.00 73 1020.6
20260831182306 76 0 0.9 2.6 0.00 0.00 0.00 71 1020.8
20260831181305 77 337 1.7 2.6 0.00 0.00 0.00 68 1020.7
20260831180305 78 342 2.6 5.2 0.00 0.00 0.00 69 1020.6
20260831175306 78 340 0.9 2.6 0.00 0.00 0.00 69 1020.6
20260831174805 78 219 1.7 4.3 0.00 0.00 0.00 69 1020.6
20260831174305 78 172 0.9 2.6 0.00 0.00 0.00 71 1020.6
20260831173805 77 153 0.0 0.0 0.00 0.00 0.00 73 1020.7
20260831173305 77 153 0.0 2.6 0.00 0.00 0.00 70 1020.6
20260831172805 77 151 0.9 2.6 0.00 0.00 0.00 71 1020.6
20260831172306 76 223 0.0 2.6 0.00 0.00 0.00 72 1020.6
20260831170305 76 5 0.0 0.9 0.00 0.00 0.00 71 1020.7
20260831165805 76 5 0.0 1.7 0.00 0.00 0.00 72 1020.7
20260831164805 76 316 0.9 1.7 0.00 0.00 0.00 70 1020.8
20260831164305 76 234 0.9 2.6 0.00 0.00 0.00 71 1020.8
20260831163806 76 225 0.9 2.6 0.00 0.00 0.00 71 1020.8
20260831162805 76 17 1.7 2.6 0.00 0.00 0.00 69 1020.7
20260831161805 76 344 2.6 2.6 0.00 0.00 0.00 71 1020.8
20260831161306 76 50 0.9 2.6 0.00 0.00 0.00 72 1020.7
20260831160805 75 50 1.7 2.6 0.00 0.00 0.00 71 1020.7
20260831160305 76 50 1.7 2.6 0.00 0.00 0.00 73 1020.7
20260831155806 76 51 1.7 2.6 0.00 0.00 0.00 72 1020.7
20260831155306 76 126 1.7 5.2 0.00 0.00 0.00 69 1020.7
20260831154805 77 79 1.7 2.6 0.00 0.00 0.00 70 1020.7
20260831154305 77 71 1.7 2.6 0.00 0.00 0.00 69 1020.6
20260831153805 76 67 0.9 4.3 0.00 0.00 0.00 72 1020.7
20260831153305 76 88 1.7 2.6 0.00 0.00 0.00 70 1020.8
20260831152804 76 143 1.7 4.3 0.00 0.00 0.00 70 1020.9
20260831152306 76 115 1.7 2.6 0.00 0.00 0.00 69 1020.9
20260831151805 76 71 1.7 2.6 0.00 0.00 0.00 72 1021.0
20260831151304 75 113 2.6 6.1 0.00 0.00 0.00 71 1021.1
20260831150805 75 113 1.7 2.6 0.00 0.00 0.00 73 1021.1
20260831150305 74 133 0.0 1.7 0.00 0.00 0.00 73 1020.9
20260831145805 74 142 0.0 1.7 0.00 0.00 0.00 73 1021.0
20260831145306 74 142 1.7 4.3 0.00 0.00 0.00 74 1021.0
20260831144305 74 76 0.9 2.6 0.00 0.00 0.00 75 1021.2
20260831143805 74 58 0.9 2.6 0.00 0.00 0.00 75 1021.2
20260831142805 73 58 1.7 2.6 0.00 0.00 0.00 76 1021.2
20260831141805 73 59 0.0 0.0 0.00 0.00 0.00 76 1021.3
20260831140805 72 58 0.9 2.6 0.00 0.00 0.00 76 1021.2
20260831140304 72 58 0.9 2.6 0.00 0.00 0.00 78 1021.2
20260831135805 72 59 0.9 1.7 0.00 0.00 0.00 78 1021.2
20260831135306 73 58 1.7 2.6 0.00 0.00 0.00 78 1021.1
20260831134805 73 58 2.6 2.6 0.00 0.00 0.00 77 1021.3
20260831133804 73 65 0.9 2.6 0.00 0.00 0.00 79 1021.1
20260831133305 72 113 0.9 2.6 0.00 0.00 0.00 78 1021.2
20260831132805 72 0 0.9 2.6 0.00 0.00 0.00 78 1021.2
20260831132307 73 76 0.9 2.6 0.00 0.00 0.00 79 1021.0
20260831131804 72 122 1.7 2.6 0.00 0.00 0.00 78 1021.1
20260831130305 72 116 1.7 5.2 0.00 0.00 0.00 80 1020.9
20260831125804 73 71 1.7 5.2 0.00 0.00 0.00 82 1021.0
20260831125306 72 72 2.6 4.3 0.00 0.00 0.00 82 1021.0
20260831124804 72 59 1.7 2.6 0.00 0.00 0.00 82 1021.0
20260831124305 71 59 0.9 1.7 0.00 0.00 0.00 82 1021.0
20260831123804 71 59 0.9 1.7 0.00 0.00 0.00 83 1021.0
20260831123305 71 59 0.0 1.7 0.00 0.00 0.00 83 1020.9
20260831122306 71 59 0.0 0.9 0.00 0.00 0.00 85 1021.0
20260831121805 71 59 0.0 0.9 0.00 0.00 0.00 84 1021.0
20260831121305 71 59 0.0 1.7 0.00 0.00 0.00 85 1021.0
20260831120804 71 69 0.9 2.6 0.00 0.00 0.00 85 1020.9
20260831120305 71 93 0.0 2.6 0.00 0.00 0.00 86 1020.8
20260831115805 70 131 0.0 1.7 0.00 0.00 0.00 86 1020.8
20260831115306 70 131 0.0 1.7 0.00 0.00 0.00 86 1020.8
20260831114805 70 131 0.9 2.6 0.00 0.00 0.00 85 1020.7
20260831114305 70 131 0.9 1.7 0.00 0.00 0.00 86 1020.8
20260831113805 70 131 0.9 2.6 0.00 0.00 0.00 86 1020.6
20260831113304 70 131 0.9 2.6 0.00 0.00 0.00 86 1020.6
20260831112805 70 119 1.7 2.6 0.00 0.00 0.00 85 1020.5
20260831112307 70 150 0.9 2.6 0.00 0.00 0.00 86 1020.6
20260831111805 70 150 0.9 2.6 0.00 0.00 0.00 86 1020.5
20260831111305 70 150 0.9 2.6 0.00 0.00 0.00 86 1020.5
20260831110804 70 150 0.9 2.6 0.00 0.00 0.00 86 1020.5
20260831110305 70 147 1.7 2.6 0.00 0.00 0.00 87 1020.4
20260831105804 69 134 1.7 4.3 0.00 0.00 0.00 87 1020.3
20260831104804 69 139 1.7 4.3 0.00 0.00 0.00 88 1020.1
20260831103805 69 112 0.9 2.6 0.00 0.00 0.00 88 1020.0
20260831103305 69 135 1.7 4.3 0.00 0.00 0.00 89 1019.9
20260831102804 69 255 0.9 1.7 0.00 0.00 0.00 90 1020.0
20260831102306 69 255 0.9 1.7 0.00 0.00 0.00 90 1019.9
20260831101804 69 255 0.0 0.9 0.00 0.00 0.00 90 1019.9
20260831101305 69 255 0.0 0.9 0.00 0.00 0.00 89 1019.8
20260831100805 69 255 0.0 0.9 0.00 0.00 0.00 89 1019.8
20260831100304 69 255 0.9 1.7 0.00 0.00 0.00 89 1019.8
20260831095805 69 255 0.9 1.7 0.00 0.00 0.00 89 1019.6
20260831094305 69 255 0.0 0.0 0.00 0.00 0.00 89 1019.7
20260831093804 69 255 0.9 1.7 0.00 0.00 0.00 89 1019.7
20260831093304 69 255 0.9 0.9 0.00 0.00 0.00 90 1019.6
20260831092805 69 255 0.9 1.7 0.00 0.00 0.00 89 1019.6
20260831092306 69 255 0.9 1.7 0.00 0.00 0.00 90 1019.6
20260831091805 69 255 0.9 1.7 0.00 0.00 0.00 89 1019.6
20260831091304 69 255 0.0 0.9 0.00 0.00 0.00 90 1019.7
20260831090804 69 255 0.0 0.9 0.00 0.00 0.00 89 1019.6
20260831085805 70 255 1.7 2.6 0.00 0.00 0.00 89 1019.6
20260831084805 69 255 0.0 1.7 0.00 0.00 0.00 89 1019.4
20260831084304 69 255 0.0 1.7 0.00 0.00 0.00 89 1019.6
20260831083805 69 255 0.9 1.7 0.00 0.00 0.00 88 1019.7
20260831083304 70 255 1.7 2.6 0.00 0.00 0.00 88 1019.7
20260831082804 70 255 1.7 2.6 0.00 0.00 0.00 88 1019.6
20260831082306 69 255 0.9 1.7 0.00 0.00 0.00 88 1019.6
20260831081804 70 255 0.9 1.7 0.00 0.00 0.00 88 1019.6
20260831081305 70 255 1.7 2.6 0.00 0.00 0.00 88 1019.6
20260831080804 70 255 1.7 2.6 0.00 0.00 0.00 88 1019.5
20260831080304 70 255 0.0 0.0 0.00 0.00 0.00 88 1019.4
20260831075805 70 255 0.0 0.0 0.00 0.00 0.00 88 1019.3
20260831075306 70 255 0.0 0.0 0.00 0.00 0.00 87 1019.3
20260831074804 70 255 0.0 0.9 0.00 0.00 0.00 87 1019.4
20260831073804 70 255 0.9 1.7 0.00 0.00 0.00 87 1019.5
20260831073304 70 255 0.0 1.7 0.00 0.00 0.00 87 1019.4
20260831072805 70 255 0.0 2.6 0.00 0.00 0.00 88 1019.4
20260831072306 71 255 0.9 1.7 0.00 0.00 0.00 88 1019.4
20260831070804 71 255 0.9 1.7 0.00 0.00 0.00 87 1019.5
20260831065805 71 255 0.0 0.9 0.00 0.00 0.00 87 1019.5
20260831065306 71 255 0.9 2.6 0.00 0.00 0.00 87 1019.5
20260831064804 71 255 0.0 1.7 0.00 0.00 0.00 86 1019.6
20260831063804 71 255 0.9 0.9 0.00 0.00 0.00 86 1019.5
20260831063304 71 255 0.9 1.7 0.00 0.00 0.00 85 1019.5
20260831062804 71 255 0.0 1.7 0.00 0.00 0.00 85 1019.6
20260831062306 71 255 0.9 2.6 0.00 0.00 0.00 85 1019.7
20260831061804 71 255 1.7 2.6 0.00 0.00 0.00 85 1019.8
20260831061304 71 255 0.9 2.6 0.00 0.00 0.00 85 1019.9
20260831060304 72 255 0.0 0.9 0.00 0.00 0.00 85 1019.9
20260831055804 72 255 0.0 1.7 0.00 0.00 0.00 84 1019.8
20260831055306 72 255 0.9 1.7 0.00 0.00 0.00 84 1019.7
20260831053304 72 255 0.9 2.6 0.00 0.00 0.00 85 1019.3
20260831052804 72 255 0.9 1.7 0.00 0.00 0.00 85 1019.4
20260831051804 72 255 0.0 0.9 0.00 0.00 0.00 85 1019.3
20260831051304 72 255 1.7 2.6 0.00 0.00 0.00 85 1019.3
20260831050305 72 255 0.9 1.7 0.00 0.00 0.00 86 1019.3
20260831045804 72 255 0.9 2.6 0.00 0.00 0.00 87 1019.4
20260831045306 72 255 0.9 1.7 0.00 0.00 0.00 87 1019.6
20260831044804 72 255 0.9 2.6 0.00 0.00 0.00 87 1019.7
20260831044303 72 255 0.9 1.7 0.00 0.00 0.00 87 1019.6
20260831043804 72 255 0.9 1.7 0.00 0.00 0.00 88 1019.5
20260831042306 72 255 0.9 1.7 0.00 0.00 0.00 87 1019.6
20260831041804 73 255 0.9 1.7 0.00 0.00 0.00 87 1019.6
20260831041304 73 255 0.9 1.7 0.00 0.00 0.00 87 1019.7
20260831040818 73 255 0.9 1.7 0.00 0.00 0.00 86 1019.7
20260831040304 73 255 0.0 0.0 0.00 0.00 0.00 86 1019.7
20260831035804 73 255 0.0 0.0 0.00 0.00 0.00 86 1019.6
20260831035306 73 255 0.0 1.7 0.00 0.00 0.00 86 1019.6
20260831034804 73 255 1.7 2.6 0.00 0.00 0.00 85 1019.7
20260831034304 74 255 1.7 2.6 0.00 0.00 0.00 85 1019.7
20260831033304 74 255 0.0 0.9 0.00 0.00 0.00 85 1019.6
20260831032804 74 255 0.9 2.6 0.00 0.00 0.00 84 1019.8
20260831032306 75 255 1.7 2.6 0.00 0.00 0.00 83 1019.8
20260831031804 75 255 1.7 2.6 0.00 0.00 0.00 82 1019.9
20260831031304 75 255 1.7 2.6 0.00 0.00 0.00 82 1020.0
20260831030803 75 255 1.7 2.6 0.00 0.00 0.00 82 1020.0
20260831030304 75 255 1.7 4.3 0.00 0.00 0.00 83 1020.2
20260831025804 75 219 2.6 4.3 0.00 0.00 0.00 83 1020.1
20260831025306 75 234 3.5 6.1 0.00 0.00 0.00 83 1020.1
20260831024804 75 236 4.3 7.0 0.00 0.00 0.00 83 1020.2
20260831023804 75 223 2.6 4.3 0.00 0.00 0.00 82 1020.1
20260831023303 76 319 2.6 10.4 0.00 0.00 0.00 82 1020.1
20260831022804 75 339 1.7 8.7 0.00 0.00 0.00 82 1020.0
20260831022307 76 226 6.1 10.4 0.00 0.00 0.00 82 1019.9
20260831021804 76 202 5.2 10.4 0.00 0.00 0.00 82 1019.9
20260831021303 76 208 5.2 8.7 0.00 0.00 0.00 82 1019.8
20260831020804 76 208 4.3 7.8 0.00 0.00 0.00 82 1019.8
20260831020303 76 215 4.3 7.0 0.00 0.00 0.00 83 1019.8
20260831015804 76 212 3.5 7.0 0.00 0.00 0.00 82 1019.8
20260831014803 76 218 3.5 7.8 0.00 0.00 0.00 82 1019.8
20260831014304 76 211 3.5 5.2 0.00 0.00 0.00 81 1019.9
20260831013304 77 239 0.9 4.3 0.00 0.00 0.00 81 1019.9
20260831012804 77 250 1.7 4.3 0.00 0.00 0.00 81 1019.9
20260831012307 77 240 2.6 7.0 0.00 0.00 0.00 81 1020.0
20260831011807 77 181 5.2 7.8 0.00 0.00 0.00 81 1019.9
20260831011306 77 190 3.5 7.0 0.00 0.00 0.00 81 1019.9
20260831010806 77 213 2.6 7.0 0.00 0.00 0.00 82 1019.8
20260831010306 76 215 1.7 5.2 0.00 0.00 0.00 81 1019.6
20260831005806 76 190 0.0 2.6 0.00 0.00 0.00 81 1019.6
20260831005306 76 190 1.7 2.6 0.00 0.00 0.00 80 1019.4
20260831004306 76 182 1.7 2.6 0.00 0.00 0.00 80 1019.3
20260831003806 76 182 1.7 2.6 0.00 0.00 0.00 78 1019.2
20260831002807 77 198 1.7 4.3 0.00 0.00 0.00 78 1019.0
20260831002306 77 207 1.7 4.3 0.00 0.00 0.00 78 1019.0
20260831000806 77 195 4.3 6.1 0.00 0.00 0.00 80 1018.9
20260831000306 77 214 4.3 6.1 0.00 0.00 0.00 81 1018.9
20260830235807 76 206 2.6 5.2 0.00 0.00 0.00 82 1018.9
20260830235307 76 190 1.7 4.3 0.00 0.00 0.00 83 1018.9
20260830234806 77 235 0.9 2.6 0.00 0.00 0.00 82 1018.8
20260830234307 77 235 0.9 2.6 0.00 0.00 0.00 82 1018.7
20260830233806 77 235 1.7 2.6 0.00 0.00 0.00 81 1018.8
20260830233306 77 235 0.9 2.6 0.00 0.00 0.00 81 1018.9
20260830232806 77 235 0.9 1.7 0.00 0.00 0.00 80 1018.9
20260830232306 78 235 0.9 1.7 0.00 0.00 0.00 80 1019.0
20260830231806 78 235 1.7 2.6 0.00 0.00 0.00 80 1018.9
20260830230806 78 235 0.9 1.7 0.00 0.00 0.00 79 1019.0
20260830230306 78 235 0.9 1.7 0.00 0.00 0.00 79 1019.0
20260830224306 79 235 0.9 1.7 0.00 0.00 0.00 76 1019.1
20260830223306 80 235 0.9 2.6 0.00 0.00 0.00 73 1018.9